Location: Dos Palmas
(32.4468°N, 116.8732°W)
Time: 22:34:02
(UTC+00:00)

Hubble Space Telescope - Visible Passes

Search period start: 28 November 2022 00:00
Search period end: 08 December 2022 00:00
Orbit: 530 x 534 km, 28.5° (Epoch: 27 November)

Date Brightness Start Highest point End Pass type
(mag) Time Alt. Az. Time Alt. Az. Time Alt. Az.
03 Dec 3.6 14:03:17 10° S 14:05:26 14° SSE 14:07:35 10° SE visible
04 Dec 3.4 13:50:03 10° SSW 13:52:43 17° SSE 13:55:23 10° ESE visible
05 Dec 3.1 13:36:58 10° SSW 13:40:00 20° SSE 13:43:01 10° ESE visible
06 Dec 2.8 13:24:00 10° SW 13:27:17 23° SSE 13:30:34 10° ESE visible
07 Dec 2.5 13:11:23 11° SW 13:14:35 27° SSE 13:18:04 10° ESE visible
